Location: Rowland
(34.5359°N, 79.2929°W)
Time: 12:16:17
(UTC+00:00)

Vanguard 3 - All Passes

Search period start: 05 October 2022 00:00
Search period end: 15 October 2022 00:00
Orbit: 508 x 3257 km, 33.3° (Epoch: 05 October)

Date Brightness Start Highest point End Pass type
(mag) Time Alt. Az. Time Alt. Az. Time Alt. Az.
05 Oct - 11:06:04 10° S 11:07:41 12° SSE 11:09:17 10° SE daylight
05 Oct - 13:14:37 10° WSW 13:18:21 57° SSE 13:23:29 10° E daylight
05 Oct - 15:25:02 10° W 15:29:51 79° S 15:38:07 10° E daylight
05 Oct - 17:35:42 10° W 17:42:14 50° SSW 17:53:45 10° SE daylight
05 Oct - 19:48:13 10° WSW 19:55:50 25° SSW 20:06:53 10° SSE daylight
06 Oct - 12:00:58 10° SW 12:04:16 31° SSE 12:07:58 10° E daylight
06 Oct - 14:11:15 10° W 14:15:17 79° S 14:21:30 10° E daylight
06 Oct - 16:21:44 10° W 16:27:07 62° SSW 16:36:36 10° ESE daylight
06 Oct - 18:33:02 10° W 18:39:57 33° SSW 18:51:03 10° SSE daylight
06 Oct - 20:49:43 10° SW 20:54:05 12° SSW 20:59:08 10° SSW daylight
07 Oct - 10:47:43 10° SSW 10:50:11 16° SSE 10:52:34 10° ESE visible
07 Oct - 12:57:22 10° WSW 13:01:00 62° SSE 13:05:40 10° E daylight
07 Oct - 15:07:56 10° W 15:12:23 74° S 15:19:44 10° ESE daylight
07 Oct - 17:18:40 10° W 17:24:32 42° SSW 17:34:33 10° SE daylight
07 Oct - 19:31:44 10° WSW 19:37:55 19° SSW 19:46:22 10° S daylight
08 Oct - 11:43:25 10° SW 11:46:54 37° SSE 11:50:31 10° E daylight
08 Oct - 13:54:06 10° W 13:57:57 79° S 14:03:29 10° E daylight
08 Oct - 16:04:40 10° W 16:09:34 54° SSW 16:17:54 10° ESE daylight
08 Oct - 18:16:14 10° WSW 18:22:12 26° SSW 18:31:17 10° SSE daylight
09 Oct - 10:29:31 10° SSW 10:32:45 21° SSE 10:35:38 10° ESE visible
09 Oct - 12:40:04 10° WSW 12:43:42 67° S 12:47:59 10° E daylight
09 Oct - 14:50:50 10° W 14:54:59 67° S 15:01:29 10° ESE daylight
09 Oct - 17:01:42 10° W 17:06:56 34° SSW 17:15:22 10° SE daylight
09 Oct - 19:15:57 10° SW 19:20:07 14° SSW 19:25:15 10° S daylight
10 Oct - 09:16:10 10° S 09:18:22 13° SSE 09:20:18 10° SE visible
10 Oct - 11:25:48 10° WSW 11:29:34 44° SSE 11:33:08 10° E daylight
10 Oct - 13:36:54 10° W 13:40:37 77° S 13:45:35 10° E daylight
10 Oct - 15:47:37 10° W 15:52:05 44° SSW 15:59:16 10° SE daylight
10 Oct - 17:59:40 10° WSW 18:04:32 20° SSW 18:11:21 10° SSE daylight
11 Oct - 10:11:22 10° SW 10:15:22 28° SSE 10:18:37 10° E visible
11 Oct - 12:22:43 10° WSW 12:26:24 72° S 12:30:23 10° E daylight
11 Oct - 14:33:41 10° W 14:37:35 59° SSW 14:43:18 10° ESE daylight
11 Oct - 16:44:51 10° WSW 16:49:23 26° SSW 16:56:11 10° SSE daylight
12 Oct - 08:57:00 10° SSW 09:00:56 18° SSE 09:03:59 10° ESE visible
12 Oct - 11:08:07 10° WSW 11:12:13 53° SSE 11:15:48 10° E daylight
12 Oct - 13:19:39 10° W 13:23:18 73° S 13:27:47 10° E daylight
12 Oct - 15:30:36 10° W 15:34:38 35° SSW 15:40:40 10° SE daylight
12 Oct - 17:43:41 10° SW 17:46:57 14° SSW 17:50:58 10° S daylight
13 Oct - 07:43:20 10° S 07:46:09 13° SSE 07:48:32 10° SE visible
13 Oct - 09:53:11 10° SW 09:57:59 36° SSE 10:01:33 10° E visible
13 Oct - 12:05:16 10° W 12:09:06 75° S 12:12:54 10° E daylight
13 Oct - 14:16:32 10° W 14:20:13 49° SSW 14:25:13 10° ESE daylight
13 Oct - 16:28:13 10° WSW 16:31:53 19° SSW 16:36:55 10° SSE daylight
14 Oct - 08:38:07 10° SW 08:43:29 25° SSE 08:47:17 10° ESE visible
14 Oct - 10:50:20 10° WSW 10:54:54 62° S 10:58:31 10° E visible
14 Oct - 13:02:21 10° W 13:05:59 67° S 13:10:06 10° ESE daylight
14 Oct - 15:13:39 10° WSW 15:17:13 27° SSW 15:22:07 10° SE daylight
